Vertical_Velocity
-3 -4 -1 -1 -1 -2 -3 1 1 5 5 3 1 0 -1 -0 4 4 2 -1 -1 -2
0 -0 -2 -2 -3 -6 -3 -5 -6 -5 -2 2 1 -2 -4 -2 1 -4 4 5 2 -7
-2 -2 -1 -3 -5 -3 -4 -6 -4 -5 -5 -4 -2 -1 -5 -2 0 -7 2 0 1 2
-2 -1 -2 -6 -5 -7 -2 -5 -3 -6 -6 -6 -5 -4 -4 -2 -0 -6 -2 -0 -4 2
-4 -3 -2 -2 -3 -5 -4 -2 -8 -3 -1 -3 -3 -2 -3 -1 -0 -2 -2 0 -5 4
-2 -3 -3 -4 -6 -2 -6 -2 1 -4 -3 -2 -3 -2 -2 -4 -2 -3 -4 -1 -3 3
-4 -1 -4 -4 -2 -3 -3 -3 -2 -1 -1 -2 -3 -4 -3 -4 -4 -3 -1 -0 -2 0
-3 -2 -1 -2 -2 -2 -3 -3 -3 -2 1 -2 -4 -3 -2 0 -0 -3 -2 1 2 -1
-3 0 -4 -2 -2 -1 -2 -1 -2 -0 -7 -1 -0 0 -2 -4 -4 -1 -1 4 2 -2
-5 -0 -2 -2 -2 -1 -1 -2 -2 -2 -3 1 1 -3 -3 -3 -7 -5 -2 0 2 3
-6 -3 -2 -1 -3 -2 -0 -4 -2 1 -1 -3 0 2 6 6 2 2 5 4 5 0
-5 -3 -2 1 -0 -1 0 0 0 -4 3 -1 2 0 1 -3 -2 -1 5 4 4 3
-5 -2 -0 -2 -0 2 -3 -0 -1 3 -6 -7 -2 -4 2 -3 -3 1 0 3 2 1
-3 -2 -4 2 -3 -1 -2 -1 1 -1 -2 5 0 2 0 -1 -2 -1 2 -5 -1 -0
Height
5621 5615 5608 5601 5594 5588 5581 5574 5568 5561 5554 5547 5541 5536 5532 5531 5529 5528 5528 5529 5530 5532
5603 5596 5589 5580 5572 5565 5557 5549 5541 5533 5525 5518 5511 5504 5499 5497 5496 5494 5495 5496 5498 5502
5586 5576 5568 5560 5551 5541 5533 5522 5512 5503 5494 5486 5477 5469 5462 5458 5456 5455 5457 5458 5461 5465
5568 5558 5549 5539 5528 5517 5507 5494 5482 5469 5459 5449 5440 5432 5425 5422 5419 5416 5417 5417 5420 5426
5548 5538 5527 5515 5502 5490 5478 5463 5449 5437 5426 5418 5410 5403 5398 5395 5392 5389 5388 5388 5386 5391
5527 5516 5504 5491 5477 5462 5447 5435 5422 5412 5405 5398 5392 5386 5381 5376 5374 5370 5368 5367 5365 5366
5506 5493 5480 5465 5450 5435 5422 5413 5405 5397 5391 5385 5378 5371 5365 5360 5356 5354 5352 5349 5347 5346
5485 5470 5454 5440 5427 5415 5405 5399 5393 5386 5379 5371 5364 5357 5351 5345 5341 5337 5335 5332 5330 5328
5462 5447 5432 5420 5409 5401 5395 5389 5383 5375 5367 5359 5351 5342 5334 5326 5321 5318 5315 5312 5308 5307
5440 5427 5416 5405 5397 5392 5386 5380 5373 5365 5355 5347 5338 5328 5318 5310 5304 5300 5296 5293 5290 5288
5421 5412 5402 5394 5389 5384 5378 5372 5364 5355 5346 5336 5326 5315 5305 5295 5288 5282 5277 5274 5270 5269
5406 5398 5390 5386 5382 5377 5371 5364 5356 5347 5338 5329 5319 5306 5294 5284 5275 5268 5262 5256 5252 5250
5394 5387 5382 5379 5375 5371 5365 5358 5349 5340 5331 5323 5312 5299 5287 5276 5267 5259 5249 5241 5236 5232
5384 5379 5375 5372 5369 5365 5359 5352 5344 5336 5327 5319 5308 5297 5285 5273 5261 5250 5241 5232 5226 5220